sat.trackr.live / text

‹ back to catalog

STARLINK-35773

NORAD 67042 · 2025-294N

PAYLOAD ACTIVE UNKNOWN

§ Identity

Operator
Country
US
Launch date
2025-12-11
Launch site
AFETR
Launch vehicle
Mass (kg)
RCS (m²)

Purposes: comms

External: N2YO · Heavens-Above · Gunter

§ Orbital elements

Epoch: 2026-05-24T21:29:28.442976Z

Period
94.27 min
Inclination
43.0026°
Eccentricity
0.0001766
Mean motion
15.27578839 rev/d
Perigee alt
481.8 km
Apogee alt
484.3 km
Semi-major
6,861.2 km
B*
2.8064e-4
RAAN
327.7317°
Arg perigee
276.6844°
Mean anomaly
83.3807°
Rev number
2,645

§ Raw data

STARLINK-357731 67042U 25294N   26144.89546809  .00007468  00000+0  28064-3 0  99942 67042  43.0026 327.7317 0001766 276.6844  83.3807 15.27578839 26454

JSON: /api/v1/satellites/67042 · /tle

For live sub-satellite position, see the globe view (requires WebGL).

§ Visibility from observer

Set your observer location to see the next 7 days of passes ≥ 10°. The values pass through the URL so the page stays shareable.

No JS? Fill the form by hand. The geolocation button needs JavaScript.